TimeMDT,TemperatureF,Dew PointF,Humidity,Sea Level PressureIn,VisibilityMPH,Wind Direction,Wind SpeedMPH,Gust SpeedMPH,PrecipitationIn,Events,Conditions,WindDirDegrees,DateUTC
12:15 AM,46.4,32.0,57,30.23,10.0,West,3.5,-,N/A,,Clear,270,2013-08-07 06:15:00
12:35 AM,48.2,32.0,54,30.23,10.0,WNW,3.5,-,N/A,,Clear,290,2013-08-07 06:35:00
12:55 AM,46.4,32.0,57,30.23,10.0,West,5.8,-,N/A,,Clear,270,2013-08-07 06:55:00
1:15 AM,46.4,30.2,53,30.23,10.0,West,4.6,-,N/A,,Clear,280,2013-08-07 07:15:00
1:35 AM,44.6,30.2,57,30.22,10.0,West,6.9,-,N/A,,Clear,280,2013-08-07 07:35:00
1:55 AM,44.6,32.0,61,30.22,10.0,West,5.8,-,N/A,,Clear,280,2013-08-07 07:55:00
2:15 AM,44.6,30.2,57,30.22,10.0,WNW,8.1,-,N/A,,Clear,290,2013-08-07 08:15:00
2:35 AM,44.6,32.0,61,30.23,10.0,WNW,4.6,-,N/A,,Clear,300,2013-08-07 08:35:00
2:55 AM,44.6,32.0,61,30.23,10.0,West,5.8,-,N/A,,Clear,280,2013-08-07 08:55:00
3:15 AM,44.6,32.0,61,30.22,10.0,West,5.8,-,N/A,,Clear,280,2013-08-07 09:15:00
3:35 AM,41.0,32.0,70,30.23,10.0,West,5.8,-,N/A,,Clear,270,2013-08-07 09:35:00
3:55 AM,41.0,30.2,65,30.23,10.0,WNW,4.6,-,N/A,,Clear,290,2013-08-07 09:55:00
4:15 AM,41.0,32.0,70,30.23,10.0,NW,5.8,-,N/A,,Clear,320,2013-08-07 10:15:00
4:35 AM,41.0,32.0,70,30.23,10.0,WNW,4.6,-,N/A,,Clear,300,2013-08-07 10:35:00
4:55 AM,37.4,32.0,81,30.23,10.0,NW,5.8,-,N/A,,Clear,310,2013-08-07 10:55:00
5:15 AM,37.4,32.0,81,30.23,10.0,NW,5.8,-,N/A,,Clear,310,2013-08-07 11:15:00
5:35 AM,41.0,32.0,70,30.23,10.0,WNW,4.6,-,N/A,,Clear,300,2013-08-07 11:35:00
5:55 AM,37.4,32.0,81,30.24,10.0,West,4.6,-,N/A,,Clear,280,2013-08-07 11:55:00
6:15 AM,35.6,32.0,87,30.24,10.0,West,5.8,-,N/A,,Clear,260,2013-08-07 12:15:00
6:35 AM,37.4,32.0,81,30.24,10.0,West,4.6,-,N/A,,Clear,280,2013-08-07 12:35:00
6:55 AM,39.2,32.0,75,30.24,10.0,West,4.6,-,N/A,,Clear,260,2013-08-07 12:55:00
7:15 AM,41.0,32.0,70,30.25,10.0,Calm,Calm,-,N/A,,Clear,0,2013-08-07 13:15:00
7:35 AM,42.8,32.0,66,30.26,10.0,Calm,Calm,-,N/A,,Clear,0,2013-08-07 13:35:00
7:55 AM,46.4,32.0,57,30.26,10.0,NW,3.5,-,N/A,,Clear,320,2013-08-07 13:55:00
8:15 AM,50.0,33.8,54,30.26,10.0,Calm,Calm,-,N/A,,Clear,0,2013-08-07 14:15:00
8:35 AM,53.6,33.8,47,30.26,10.0,Calm,Calm,-,N/A,,Clear,0,2013-08-07 14:35:00
8:55 AM,57.2,32.0,38,30.26,10.0,Calm,Calm,-,N/A,,Clear,0,2013-08-07 14:55:00
9:15 AM,60.8,32.0,34,30.25,10.0,Calm,Calm,-,N/A,,Clear,0,2013-08-07 15:15:00
9:35 AM,64.4,32.0,30,30.25,10.0,Calm,Calm,-,N/A,,Clear,0,2013-08-07 15:35:00
9:55 AM,66.2,33.8,30,30.25,10.0,East,3.5,-,N/A,,Clear,100,2013-08-07 15:55:00
10:15 AM,68.0,33.8,28,30.25,10.0,SE,3.5,-,N/A,,Clear,140,2013-08-07 16:15:00
10:35 AM,69.8,35.6,28,30.24,10.0,Calm,Calm,-,N/A,,Clear,0,2013-08-07 16:35:00
10:55 AM,69.8,33.8,27,30.24,10.0,Calm,Calm,-,N/A,,Clear,0,2013-08-07 16:55:00
11:15 AM,71.6,32.0,23,30.23,10.0,South,4.6,-,N/A,,Clear,190,2013-08-07 17:15:00
11:35 AM,73.4,32.0,22,30.22,10.0,SE,4.6,-,N/A,,Clear,140,2013-08-07 17:35:00
11:55 AM,73.4,30.2,20,30.22,10.0,Calm,Calm,-,N/A,,Clear,0,2013-08-07 17:55:00
12:15 PM,75.2,28.4,18,30.21,10.0,North,5.8,-,N/A,,Clear,350,2013-08-07 18:15:00
12:35 PM,77.0,28.4,17,30.21,10.0,NE,6.9,-,N/A,,Clear,50,2013-08-07 18:35:00
12:55 PM,77.0,26.6,16,30.20,10.0,SSE,3.5,-,N/A,,Clear,150,2013-08-07 18:55:00
1:15 PM,78.8,26.6,15,30.19,10.0,NW,5.8,-,N/A,,Clear,320,2013-08-07 19:15:00
1:35 PM,78.8,26.6,15,30.19,10.0,NW,8.1,16.1,N/A,,Clear,320,2013-08-07 19:35:00
1:55 PM,77.0,26.6,16,30.18,10.0,Calm,Calm,-,N/A,,Clear,0,2013-08-07 19:55:00
2:15 PM,80.6,26.6,14,30.18,10.0,NW,10.4,-,N/A,,Clear,320,2013-08-07 20:15:00
2:35 PM,80.6,24.8,13,30.17,10.0,NNW,10.4,20.7,N/A,,Clear,330,2013-08-07 20:35:00
2:55 PM,80.6,23.0,12,30.16,10.0,NNW,18.4,23.0,N/A,,Clear,330,2013-08-07 20:55:00
3:15 PM,80.6,23.0,12,30.16,10.0,NW,12.7,23.0,N/A,,Clear,320,2013-08-07 21:15:00
3:35 PM,78.8,21.2,12,30.15,10.0,NW,13.8,17.3,N/A,,Clear,320,2013-08-07 21:35:00
3:55 PM,80.6,19.4,10,30.14,10.0,NNW,17.3,23.0,N/A,,Clear,330,2013-08-07 21:55:00
4:15 PM,82.4,21.2,10,30.14,10.0,WNW,17.3,25.3,N/A,,Clear,300,2013-08-07 22:15:00
4:35 PM,78.8,21.2,12,30.14,10.0,NNW,8.1,-,N/A,,Clear,340,2013-08-07 22:35:00
4:55 PM,80.6,21.2,11,30.13,10.0,NW,10.4,27.6,N/A,,Clear,310,2013-08-07 22:55:00
5:15 PM,80.6,21.2,11,30.13,10.0,NW,12.7,-,N/A,,Clear,310,2013-08-07 23:15:00
5:35 PM,78.8,23.0,13,30.13,10.0,NNW,6.9,-,N/A,,Clear,340,2013-08-07 23:35:00
5:55 PM,78.8,24.8,14,30.13,10.0,NW,13.8,-,N/A,,Clear,320,2013-08-07 23:55:00
6:15 PM,77.0,26.6,16,30.13,10.0,NW,11.5,17.3,N/A,,Clear,310,2013-08-08 00:15:00
6:35 PM,78.8,26.6,15,30.13,10.0,NW,11.5,-,N/A,,Clear,320,2013-08-08 00:35:00
6:55 PM,78.8,23.0,13,30.13,10.0,WNW,13.8,-,N/A,,Clear,300,2013-08-08 00:55:00
7:15 PM,77.0,23.0,13,30.13,10.0,NW,10.4,-,N/A,,Clear,320,2013-08-08 01:15:00
7:35 PM,73.4,26.6,18,30.14,10.0,WNW,9.2,-,N/A,,Clear,300,2013-08-08 01:35:00
7:55 PM,71.6,28.4,20,30.14,10.0,NW,11.5,-,N/A,,Clear,310,2013-08-08 01:55:00
8:15 PM,69.8,30.2,23,30.14,10.0,NW,11.5,-,N/A,,Clear,310,2013-08-08 02:15:00
8:35 PM,68.0,32.0,26,30.14,10.0,NW,8.1,-,N/A,,Clear,310,2013-08-08 02:35:00
8:55 PM,64.4,32.0,30,30.15,10.0,WNW,5.8,-,N/A,,Clear,290,2013-08-08 02:55:00
9:15 PM,62.6,32.0,32,30.16,10.0,NW,9.2,-,N/A,,Scattered Clouds,310,2013-08-08 03:15:00
9:35 PM,62.6,28.4,27,30.16,10.0,WNW,9.2,-,N/A,,Scattered Clouds,300,2013-08-08 03:35:00
9:55 PM,59.0,28.4,31,30.17,10.0,WNW,8.1,-,N/A,,Mostly Cloudy,300,2013-08-08 03:55:00
10:15 PM,55.4,30.2,38,30.18,10.0,NNW,8.1,-,N/A,,Mostly Cloudy,330,2013-08-08 04:15:00
10:35 PM,55.4,28.4,36,30.18,10.0,Calm,Calm,-,N/A,,Overcast,0,2013-08-08 04:35:00
10:55 PM,53.6,26.6,35,30.18,10.0,WSW,8.1,-,N/A,,Scattered Clouds,250,2013-08-08 04:55:00
11:15 PM,53.6,26.6,35,30.18,10.0,West,6.9,-,N/A,,Clear,280,2013-08-08 05:15:00
11:35 PM,51.8,26.6,38,30.18,10.0,WNW,8.1,-,N/A,,Clear,290,2013-08-08 05:35:00
11:55 PM,50.0,26.6,40,30.19,10.0,Calm,Calm,-,N/A,,Clear,0,2013-08-08 05:55:00